DMSP 5D-2 F13 DEB, 40410

Orbit data source: Space-Track

DMSP 5D-2 F13 DEB, 40410 is space debris in SSO originally from a launch on Fri, 24 Mar 1995 UTC launched from the Air Force Western Test Range (AFWTR). Debris objects in space refer to the collection of defunct objects orbiting the Earth. Examples of debris include non-operational satellites, rocket bodies, and fragments generated from explosions, collisions, or faulty payload assembly.

Loading next visibility...
Identifier
40410, 1995-015X
Orbit
SSO
Country
Flag of USUS
Related business
Manufacturer
Unknown
Mission
Spacecraft
Bus & Motor
Unknown
Mass
Unknown
Launch date (UTC)
1995-03-24 (31 years ago)
Launch vehicle
Unknown
Launch site
Air Force Western Test Range (AFWTR)
Object type
Payload
Rocket body
Debris
Shape & HBR
Unknown shape, 0.1 m
Radar Cross Section
Small (<0.1 m²)

Expand to show TLE details & history
Last TLE update: 16 hours ago

TLE from 16 hours ago
0 DMSP 5D-2 F13 DEB
1 40410U 95015X   26133.03892939  .00001272  00000-0  55382-3 0  9995
2 40410  98.7977 158.9796 0015671 332.3096  27.7247 14.25760632579667
Epoch: 2026-05-13T00:56Z
TLE epoch observation values (Epoch: 2026-05-13T00:56:03.499Z)
Latitude
-0.00006°
Longitude
-85.83965°
Altitude
798.892 km
Speed
7.459 km/s
True Right ascension
10h 35m 55s
True Declination
0° 00' 00"
Sunlit
Object was in daylight at epoch
Visualization orbit readout
Latitude
Unknown
Longitude
Unknown
Altitude
Unknown
Speed
Unknown
Apparent Right ascension
Unknown
Apparent Declination
Unknown
Sunlit
N/A
Visualization observer readout
Local Sidereal Time
01:15:20
Azimuth
Unknown
Elevation
Unknown
Doppler factor
Unknown
Orbital elements
Apogee altitude
814.345 km
Perigee altitude
791.838 km
Semi-major axis
7,181.229 km
Eccentricity
0.00157
Inclination
98.7977°
RAAN
158.9796°
Arg. of periapsis
332.3096°
True anomaly
27.80839°
Mean anomaly
27.7247°
Eccentric anomaly
27.76653°
Mean motion
3.56652 °/min
Orbital period
100.94 mins
BSTAR
0.00055382

Documentation

Showing up to 5 results
|